EDT,Max TemperatureF,Mean TemperatureF,Min TemperatureF,Max Dew PointF,MeanDew PointF,Min DewpointF,Max Humidity, Mean Humidity, Min Humidity, Max Sea Level PressureIn, Mean Sea Level PressureIn, Min Sea Level PressureIn, Max VisibilityMiles, Mean VisibilityMiles, Min VisibilityMiles, Max Wind SpeedMPH, Mean Wind SpeedMPH, Max Gust SpeedMPH,PrecipitationIn, CloudCover, Events, WindDirDegrees
2013-6-1,82,72,61,67,62,60,96,75,49,30.16,30.11,30.05,10,10,3,12,2,17,0.05,7,Rain,203
2013-6-2,72,68,63,70,66,62,98,93,80,30.06,30.00,29.94,10,6,1,8,1,,0.08,8,Rain,331
2013-6-3,81,70,60,66,62,56,100,79,42,30.04,29.97,29.92,10,8,0,12,2,18,0.01,7,Fog-Rain,304
2013-6-4,82,68,53,62,58,54,100,74,39,30.08,30.05,30.01,10,8,0,13,1,16,0.00,0,Fog,283
2013-6-5,84,72,60,66,63,60,99,81,51,30.10,30.04,29.97,10,9,2,13,2,20,0.56,,Rain,215
2013-6-6,78,70,61,68,64,61,99,89,64,29.99,29.89,29.82,10,10,5,15,1,18,0.00,,Rain,283
2013-6-7,79,71,63,68,65,60,99,87,58,29.91,29.80,29.74,10,10,7,10,1,,0.25,,Rain,346
2013-6-8,79,70,60,65,62,60,98,82,53,30.15,30.02,29.90,10,8,4,9,2,16,0.00,,Rain,244
2013-6-9,82,71,60,70,64,59,98,86,53,30.17,30.11,30.05,10,8,2,13,1,,0.29,,Rain,236
2013-6-10,78,70,63,67,64,60,98,84,54,30.06,30.02,29.96,10,9,3,18,3,33,0.55,,Rain,257
2013-6-11,84,74,63,68,65,61,100,79,47,30.09,30.05,30.01,10,9,0,16,3,21,0.48,,Fog-Rain,262
2013-6-12,88,74,61,74,67,61,99,82,58,30.12,30.08,30.03,10,9,7,12,1,,0.00,,,225
2013-6-13,84,74,64,74,68,65,100,87,61,30.04,29.93,29.78,10,8,0,18,3,24,0.40,,Fog-Rain,243
2013-6-14,81,68,55,65,56,51,98,67,36,30.09,29.99,29.92,10,10,7,15,4,22,0.00,,,40
2013-6-15,82,67,52,64,57,51,99,71,41,30.19,30.14,30.09,10,10,7,9,1,,0.00,,,266
2013-6-16,84,70,57,69,62,56,98,76,47,30.20,30.14,30.06,10,9,3,8,1,,0.00,,Rain,262
2013-6-17,80,74,67,70,67,65,98,88,60,30.11,30.06,30.00,10,7,2,9,1,,0.00,,Rain,261
2013-6-18,76,70,62,70,67,62,99,93,81,30.00,29.95,29.89,10,8,3,10,2,17,0.02,,Rain,280
2013-6-19,83,70,58,67,62,58,99,79,48,30.15,30.04,29.98,10,10,10,5,1,,0.00,,,90
2013-6-20,83,71,59,67,63,59,99,86,53,30.27,30.21,30.15,10,9,2,14,1,20,0.00,,Rain,262
2013-6-21,80,70,60,65,63,61,100,88,57,30.30,30.27,30.23,10,7,0,15,1,20,0.85,,Fog-Rain,344
2013-6-22,84,70,56,66,61,56,100,79,44,30.30,30.23,30.14,10,7,0,8,1,,0.00,,Fog,233
2013-6-23,82,70,58,69,63,58,99,82,55,30.26,30.21,30.16,10,9,2,9,1,,0.36,,Rain,307
2013-6-24,85,75,65,69,67,65,100,81,52,30.28,30.22,30.15,10,9,4,10,2,,0.02,3,Rain,245
2013-6-25,81,72,63,71,67,63,100,88,60,30.23,30.17,30.10,10,8,0,15,1,18,0.00,5,Fog-Rain,289
2013-6-26,83,74,64,72,68,65,99,88,62,30.14,30.07,29.99,10,8,2,9,1,,0.00,6,Rain,237
2013-6-27,85,76,68,72,70,67,99,87,61,30.04,29.94,29.86,10,8,1,13,2,16,0.00,5,Rain,250
2013-6-28,87,76,64,71,68,64,100,87,52,29.92,29.83,29.73,10,7,0,16,2,32,0.00,4,Fog-Rain,243
2013-6-29,82,72,62,68,63,58,98,76,44,29.79,29.75,29.72,10,10,7,9,3,,0.00,4,,258
2013-6-30,83,70,57,66,60,56,98,74,41,29.86,29.80,29.77,10,10,4,10,1,,0.00,2,,253